星链-2516 (STARLINK-2516 )

导读

STARLINK-2516是美国SpaceX公司星链(Starlink)星座的卫星,于2021年4月29日发射。作为星链卫星互联网项目的组成部分,它运行在近地轨道,依托低轨星座优势,可为全球网络覆盖盲区提供高速宽带接入,相比传统同步轨道卫星延迟更低,助力实现全球高速互联网接入服务,星链项目整体在民用通信领域已获得广泛商业应用。

Basic Information
目录编号:
48283
目录名称:
STARLINK-2516
国际标识:
2021-036H
轨道中心:
EARTH
卫星名称:
星链-2516
卫星全名:
星链-2516 (STARLINK-2516 )
卫星状态:
在轨 (已飞行1954 天)
发射日期:
2021-04-29 UTC
国别 :
美国 (US)
星等 :
--
Orbit Information
数据来源 国际轨道数据
星历时间: 2026-09-02T22:52:48+0800
1天前
查看轨道信息
半长轴: 6848.879km
偏心率: 0.000128
轨道倾角: 53.159°
近地点辐角 84.634°
升交点赤经 332.001°
平近点角 275.481°
近地点: 469.865km
远地点: 471.619km
周期: 94.013分钟
每日圈数: 15.316995
Detailed Information
固有亮度:
5
最大亮度:
2.5
卫星平台:
Starlink V1.0
覆盖范围:
全球
运营商:
太空探索技术公司
运营商所在国:
美国
制造商(研发单位):
太空探索技术公司
制造商所在国:
美国
使用方式:
暂无
Satellite Introduction
星链(Starlink)计划是由太空探索技术公司(SpaceX)提出的一个巨型低轨卫星互联网星座项目,计划在2019年至2024年间在太空搭建由约1.2万颗卫星组成的“星链”网络,其中1584颗将部署在地球上空550千米处的近地轨道,并从2020年开始工作。该卫星仍在工作。
2D Orbit Map
3D Orbit Map
Orbit Altitude Analysis Chart
Orbit Inclination Analysis Chart
Orbit Comprehensive Analysis Chart
View Comprehensive Chart
Conjunction Data List
Event ID Objects TCA Miss Dist (km) Collision Risk Probability Collision Risk Index (CRI) Action
CDM_260901-094304-828305-314321
2026-09-01T
09:43:16+0000
1.727 km
极远距离
3.474125E-6 低风险 0.46